Regional Weather Roundup
Issued by NWS San Diego, CA

Current Version | Previous Version | Text Only | Print | Product List | Glossary On
Versions: 1 2 3 4 5 6 7 8 9 10 11 12 13 14 15 16 17 18 19 20 21 22 23 24 25 26 27 28 29 30 31 32 33 34 35 36 37 38 39 40 41 42 43 44 45 46 47 48 49 50
000
ASUS46 KSGX 211311
RWRSGX

SAN DIEGO HOURLY WEATHER ROUNDUP
NATIONAL WEATHER SERVICE SAN DIEGO CA
600 AM PDT MON OCT 21 2019

NOTE: "FAIR" INDICATES FEW OR NO CLOUDS BELOW 12,000 FEET WITH NO
SIGNIFICANT WEATHER AND/OR OBSTRUCTIONS TO VISIBILITY.

CAZ042-043-060-061-PZZ750-775-211400-

GREATER SAN DIEGO AREA

CITY           SKY/WX    TMP DP  RH WIND       PRES   REMARKS
SAN DIEGO AP   CLEAR     58  50  75 CALM      29.95R
NATIONAL CITY    N/A     58  10  15 CALM      29.94R
CHULA VISTA      N/A     59  45  58 E1        29.85R
BROWN FIELD    CLEAR     55  36  48 SE5       29.95R
MIRAMAR MCAS   CLEAR     64  36  35 E9        29.94R
MONTGOMERY FLD CLEAR     61  42  49 CALM      29.95R
GILLESPIE FLD  FAIR      54  43  66 CALM      29.95R

$$

NORTH SAN DIEGO COUNTY

CITY           SKY/WX    TMP DP  RH WIND       PRES   REMARKS
CAMP PENDLETON CLEAR     47  38  71 CALM      29.94R
OCEANSIDE AP   CLEAR     56  39  53 NE7       29.94R
OCEANSIDE HBR    N/A     61  43  51 NW1       29.96R
VISTA            N/A     63  37  37 CALM      29.91R
CARLSBAD       CLEAR     66  32  28 CALM      29.93R
DEL MAR          N/A     65  41  41 E1        29.94R
LA JOLLA SCRIP   N/A     70  46  42 CALM      29.93R
FALLBROOK      FAIR      66  30  26 NE6       29.97R
ESCONDIDO        N/A     57  42  57 W2        29.95R
SAN MARCOS       N/A     64  34  33 CALM      29.97R
POWAY            N/A     52  40  62 CALM      29.96R

$$

EAST SAN DIEGO COUNTY

CITY           SKY/WX    TMP DP  RH WIND       PRES   REMARKS
RAMONA         CLEAR     51  28  41 CALM      29.99R
SANTEE LAKES     N/A     52  43  71 N2        29.93R
LA MESA          N/A     66  41  39 CALM      29.89R
JAMUL            N/A     56  32  39 CALM      29.95R
DESCANSO N       N/A     67  29  24 NE3       29.89S
MT. LAGUNA OBS   N/A     52  22  30 NE13      29.97R
CAMPO            N/A     67  19  16 CALM      30.00R

$$

ORANGE COUNTY AND THE LOS ANGELES BASIN

CITY           SKY/WX    TMP DP  RH WIND       PRES   REMARKS
JOHN WAYNE AP  CLEAR     62  51  67 CALM      29.93R
LAGUNA BEACH     N/A     55  45  70 CALM      29.93R
LAKE FOREST FR   N/A     70  27  20 SE2       29.80R
HUNTINGTON BCH   N/A     55  54  95 NE2       29.94R
LOS ALAMITOS   FAIR      54  47  78 N3        29.93R
FULLERTON      CLEAR     58  45  62 CALM      29.93R
LONG BEACH     CLEAR     65  41  41 NW3       29.94R
L.A. AP        CLEAR     68  38  33 NE5       29.95R
L.A. DOWNTOWN  CLEAR     70  38  31 CALM      29.94R

$$

THE INLAND EMPIRE

CITY           SKY/WX    TMP DP  RH WIND       PRES   REMARKS
CHINO          CLEAR     54  40  59 CALM      29.99R
ONTARIO        CLEAR     62  39  42 N5        29.98R
SAN BERNARDINO FAIR      57  28  33 E7        30.00R
RIVERSIDE AP   CLEAR     60  32  34 NE8       29.98R
MORENO VALLEY    N/A     63  35  35 CALM      30.11R
MARCH ARB      CLEAR     48  25  40 CALM      30.01R
HORSETHIEF CYN   N/A     64  22  20 W1        29.96R
PERRIS           N/A     60  35  39 CALM      30.04R
HEMET EAST       N/A     62  21  21 CALM      30.00R
FRENCH VALLEY  FAIR      54  30  40 CALM      30.01R
TEMECULA         N/A     53  44  70 E1        30.00R

$$

SAN BERNARDINO AND RIVERSIDE COUNTY MOUNTAINS

CITY           SKY/WX    TMP DP  RH WIND       PRES   REMARKS
BIG BEAR AP    CLEAR     30  19  64 CALM      30.26R
ANGELUS OAKS     N/A     54  28  36 CALM      29.92R

$$

SOUTHERN DESERT INCLUDING THE COACHELLA VALLEY

CITY           SKY/WX    TMP DP  RH WIND       PRES   REMARKS
PALM SPRINGS   CLEAR     65  26  23 NW6       30.00R
THOUSAND PALMS   N/A     60  28  29 NW3       29.95R
PALM DESERT      N/A     59  41  51 CALM        N/A
THERMAL        CLEAR     54  34  46 N7        29.96R
BORREGO AP     FAIR      52  23  32 W3        30.00R
BLYTHE         CLEAR     63   9  12 NW6       29.99R
IMPERIAL AP    CLEAR     57  29  34 W3        29.97R
EL CENTRO NAS  FAIR      56  21  25 W6        29.99R
YUMA AZ        CLEAR     68  16  13 N10       29.96R
MEXICALI       CLEAR     61  23  23 W9        29.98

$$

UPPER DESERT

CITY           SKY/WX    TMP DP  RH WIND       PRES   REMARKS
VICTORVILLE AP CLEAR    N/A N/A N/A S6        30.12
HESPERIA         N/A     46  26  46 CALM      30.11R
APPLE VALLEY     N/A     35  31  87 S1        30.14R
PALMDALE       PTCLDY    46  33  60 S6        30.12R
LANCASTER      PTCLDY    42  31  64 SE3       30.12R
EDWARDS AFB    CLEAR     45  29  54 NW3       30.09R
DAGGETT        CLEAR     55  31  39 W14       30.09R
29 PALMS N     CLEAR     53  19  26 W3        30.14R
NEEDLES        CLEAR     56   8  14 NW3       30.04R

$$

REGIONAL REPORTS

CITY           SKY/WX    TMP DP  RH WIND       PRES   REMARKS
SANTA BARBARA  CLEAR     54  43  66 N3        29.95R
SANDBERG       CLEAR     56  32  40 N6        30.17R
LAS VEGAS NV   PTCLDY    57  19  22 CALM      30.09R
PHOENIX AZ     PTCLDY    61  16  17 SW3       29.96R
TIJUANA        CLEAR     63  30  29 E3        29.96
ENSENADA NW      N/A     68  32  26 CALM      29.89R

$$

OFFSHORE ISLANDS

CITY           SKY/WX    TMP DP  RH WIND       PRES   REMARKS
CATALINA ARPT  CLEAR     74  32  21 SE5       30.00R
SAN CLEMENTE I CLEAR     66  32  28 SW3       29.95R
SAN NICOLAS IS CLEAR    N/A N/A N/A NW13      29.95R

$$

MARINE AND OFFSHORE BUOY REPORTS

STATION/POSITION SKY/WX   TEMP    WIND        PRES    VSBY  SWELL
                          AIR SEA DIR/SP/G                  HT/PER/DIR
                          (F)     (DEG/KT/KT) (MB)    (MI)  (FT/S/D)
TANNER BANKS               64     330/  8/ 12 1013.6R        10/300/14
S CLEMENTE BASIN           67 67  350/  4/  6 1013.4R         5/280/ 8
SAN NICOLAS IS.               59                N/A           5/310/13
SO. S. ROSA ISLA           61 58  320/ 12/ 14 1014.5R         7/310/13
W. S. BARBARA CH                                N/A
M. S. BARBARA CH           65 63  150/  2/  4 1014.4R         3/260/ 8
S. MONICA BASIN            68 66  300/  2/  4 1013.8R         3/220/17
S PEDRO CHANNEL               64                N/A           2/180/18
OCEANSIDE OFFSHR              67                N/A           2/200/17
TORREY PINES OTR              65                N/A           2/180/18
SAN DIEGO BAY                 70              1013.1
IMPERIAL BEACH                64                N/A           2/230/18
POINT LOMA SOUTH              68                N/A           3/190/18

$$




USA.gov is the U.S. government's official web portal to all federal, state and local government web resources and services.